Hutchinson, KS

12:25 AM CST on November 20, 2019 (GMT -0600)
Hutchinson Municipal

Weather History for KHUT - September, 2019

Change the Weather History Date:

Sunday, September 22, 2019

  Actual Average Record
Temperature  
Mean Temperature 67 °F -  
Max Temperature 81 °F 77 °F 96 °F (2017)
Min Temperature 54 °F 50 °F 39 °F (1999)
Cooling Degree Days 2    
Growing Degree Days 17 (Base 50)    
Moisture  
Dew Point 62 °F    
Average Humidity 76    
Maximum Humidity 93    
Minimum Humidity 43    
Precipitation  
Precipitation 0.00 in - - ()
Sea Level Pressure  
Sea Level Pressure 29.89 in    
Wind  
Wind Speed 12 mph (NW)    
Max Wind Speed 18 mph    
Max Gust Speed 43 mph    
Visibility 10 miles    
Events Rain    
Averages and records for this station are not official NWS values.
T = Trace of Precipitation, MM = Missing Value Source: NWS Daily Summary

Daily Weather History Graph

Daily Weather History Graph

Search for Another Location

Airport or City:

Astronomy

Sep. 22, 2019 Rise Set
Actual Time 7:19 AM CDT 7:28 PM CDT
Civil Twilight 6:52 AM CDT 7:54 PM CDT
Nautical Twilight 6:21 AM CDT 8:25 PM CDT
Astronomical Twilight 5:50 AM CDT 8:56 PM CDT
Moon 12:15 AM CDT (9/22) 3:19 PM CDT (9/22)
Length of Visible Light 13h 02m
Length of Day
12h 09m
Last Quarter, 44% of the Moon is Illuminated
Sep 22
Last Quarter
Sep 28
New
Oct 5
First Quarter
Oct 13
Full
Oct 21
Last Quarter

Hourly Weather History & Observations

Time (CDT) Temp. Heat Index Dew Point Humidity Pressure Visibility Wind Dir Wind Speed Gust Speed Precip Events Conditions
12:52 AM 78.1 °F - 69.1 °F 74% 29.82 in 10.0 mi South 17.3 mph - N/A   Mostly Cloudy
1:52 AM 75.9 °F - 69.1 °F 79% 29.80 in 10.0 mi South 15.0 mph 25.3 mph N/A   Clear
2:52 AM 73.9 °F - 68.0 °F 82% 29.80 in 10.0 mi South 16.1 mph 26.5 mph N/A   Partly Cloudy
3:28 AM 73.9 °F - 68.0 °F 82% 29.88 in 10.0 mi SSW 17.3 mph 24.2 mph N/A   Mostly Cloudy
3:52 AM 73.9 °F - 68.0 °F 82% 29.80 in 10.0 mi South 12.7 mph - N/A   Overcast
4:52 AM 73.0 °F - 68.0 °F 84% 29.79 in 10.0 mi South 8.1 mph - N/A   Overcast
5:16 AM 73.0 °F - 66.9 °F 81% 29.85 in 10.0 mi SSE 13.8 mph - N/A   Overcast
5:23 AM 73.0 °F - 66.9 °F 81% 29.85 in 10.0 mi SSE 12.7 mph - N/A   Overcast
5:52 AM 72.0 °F - 66.9 °F 84% 29.78 in 10.0 mi South 10.4 mph - N/A   Overcast
6:29 AM 71.1 °F - 68.0 °F 90% 29.86 in 10.0 mi South 8.1 mph - N/A   Overcast
6:52 AM 71.1 °F - 68.0 °F 90% 29.79 in 10.0 mi South 8.1 mph - N/A   Scattered Clouds
7:13 AM 71.1 °F - 68.0 °F 90% 29.86 in 10.0 mi South 6.9 mph - N/A   Mostly Cloudy
7:30 AM 71.1 °F - 68.0 °F 90% 29.86 in 10.0 mi SSW 5.8 mph - N/A   Mostly Cloudy
7:52 AM 71.1 °F - 68.0 °F 90% 29.79 in 10.0 mi South 8.1 mph - N/A   Overcast
8:52 AM 73.9 °F - 68.0 °F 82% 29.81 in 10.0 mi SSW 8.1 mph - N/A   Overcast
9:12 AM 66.9 °F - 62.1 °F 84% 29.91 in 10.0 mi NNW 18.4 mph 42.6 mph N/A   Overcast
9:21 AM 64.9 °F - 61.0 °F 87% 29.91 in 10.0 mi NNW 16.1 mph 23.0 mph 0.00 in Rain Light Rain
9:41 AM 64.9 °F - 59.0 °F 81% 29.92 in 10.0 mi North 9.2 mph 24.2 mph 0.00 in   Overcast
9:52 AM 64.9 °F - 59.0 °F 81% 29.87 in 10.0 mi North 15.0 mph 25.3 mph 0.00 in   Overcast
10:13 AM 64.9 °F - 57.9 °F 78% 29.94 in 10.0 mi North 11.5 mph 23.0 mph N/A   Overcast
10:39 AM 66.9 °F - 57.9 °F 73% 29.95 in 10.0 mi North 12.7 mph 21.9 mph N/A   Overcast
10:52 AM 68.0 °F - 57.9 °F 70% 29.90 in 10.0 mi NNW 13.8 mph 26.5 mph N/A   Overcast
11:05 AM 68.0 °F - 57.9 °F 70% 29.96 in 10.0 mi NNW 16.1 mph 20.7 mph N/A   Overcast
11:31 AM 70.0 °F - 57.9 °F 65% 29.94 in 10.0 mi North 13.8 mph 20.7 mph N/A   Scattered Clouds
12:52 PM 75.0 °F - 60.1 °F 60% 29.88 in 10.0 mi NNW 9.2 mph 16.1 mph N/A   Clear
1:52 PM 78.1 °F - 61.0 °F 56% 29.88 in 10.0 mi NNW 11.5 mph 18.4 mph N/A   Clear
3:52 PM 80.1 °F 80.4 °F 57.0 °F 45% 29.88 in 10.0 mi North 12.7 mph - N/A   Clear
4:52 PM 80.1 °F 80.2 °F 55.9 °F 43% 29.88 in 10.0 mi North 9.2 mph 20.7 mph N/A   Clear
5:52 PM 78.1 °F - 55.0 °F 45% 29.90 in 10.0 mi North 10.4 mph - N/A   Clear
6:52 PM 75.0 °F - 54.0 °F 48% 29.92 in 10.0 mi North 8.1 mph - N/A   Clear
7:52 PM 66.0 °F - 55.9 °F 70% 29.95 in 10.0 mi North 4.6 mph - N/A   Clear
8:52 PM 63.0 °F - 54.0 °F 72% 29.98 in 10.0 mi North 4.6 mph - N/A   Clear
9:52 PM 57.9 °F - 53.1 °F 84% 30.01 in 10.0 mi NNE 3.5 mph - N/A   Clear
10:52 PM 54.0 °F - 52.0 °F 93% 30.04 in 10.0 mi Calm Calm - N/A   Clear
11:52 PM 55.9 °F - 51.1 °F 84% 30.03 in 10.0 mi Calm Calm - N/A   Clear